TimeCST,TemperatureF,Dew PointF,Humidity,Sea Level PressureIn,VisibilityMPH,Wind Direction,Wind SpeedMPH,Gust SpeedMPH,PrecipitationIn,Events,Conditions,WindDirDegrees,DateUTC
12:53 AM,43.0,32.0,65,30.22,10.0,NW,3.5,-,N/A,,Clear,320,2013-03-02 06:53:00
1:53 AM,44.1,30.9,60,30.23,10.0,NW,4.6,-,N/A,,Clear,320,2013-03-02 07:53:00
2:53 AM,43.0,30.9,62,30.23,10.0,WNW,3.5,-,N/A,,Clear,300,2013-03-02 08:53:00
3:53 AM,44.1,30.9,60,30.24,10.0,NNW,11.5,-,N/A,,Clear,330,2013-03-02 09:53:00
4:53 AM,42.1,30.9,65,30.25,10.0,NNW,9.2,-,N/A,,Clear,330,2013-03-02 10:53:00
5:53 AM,39.9,30.9,70,30.26,10.0,NNW,10.4,-,N/A,,Clear,340,2013-03-02 11:53:00
6:53 AM,37.9,30.9,76,30.29,10.0,North,9.2,-,N/A,,Clear,350,2013-03-02 12:53:00
7:53 AM,41.0,28.0,60,30.32,10.0,North,11.5,18.4,N/A,,Clear,360,2013-03-02 13:53:00
8:53 AM,44.1,27.0,51,30.33,10.0,North,17.3,21.9,N/A,,Clear,350,2013-03-02 14:53:00
9:53 AM,45.0,26.1,48,30.32,10.0,NNW,18.4,24.2,N/A,,Partly Cloudy,330,2013-03-02 15:53:00
10:53 AM,46.9,23.0,39,30.32,10.0,NNW,18.4,25.3,N/A,,Partly Cloudy,340,2013-03-02 16:53:00
11:53 AM,48.0,23.0,37,30.31,10.0,NNW,15.0,24.2,N/A,,Clear,330,2013-03-02 17:53:00
12:53 PM,50.0,25.0,38,30.28,10.0,North,18.4,23.0,N/A,,Clear,350,2013-03-02 18:53:00
1:53 PM,50.0,24.1,36,30.26,10.0,North,13.8,21.9,N/A,,Clear,360,2013-03-02 19:53:00
2:53 PM,52.0,24.1,34,30.25,10.0,NNW,10.4,-,N/A,,Clear,330,2013-03-02 20:53:00
3:53 PM,53.1,24.1,32,30.25,10.0,NNW,13.8,21.9,N/A,,Clear,340,2013-03-02 21:53:00
4:53 PM,52.0,25.0,35,30.25,10.0,NNW,11.5,-,N/A,,Clear,330,2013-03-02 22:53:00
5:53 PM,50.0,26.1,39,30.26,10.0,NNW,10.4,-,N/A,,Clear,340,2013-03-02 23:53:00
6:53 PM,46.4,26.6,46,30.27,10.0,NNW,5.8,-,N/A,,Clear,330,2013-03-03 00:53:00
7:53 PM,43.0,28.0,56,30.30,10.0,NNW,5.8,-,N/A,,Clear,340,2013-03-03 01:53:00
8:53 PM,39.0,30.9,73,30.31,10.0,Calm,Calm,-,N/A,,Clear,0,2013-03-03 02:53:00
9:53 PM,37.0,30.9,79,30.31,10.0,Calm,Calm,-,N/A,,Clear,0,2013-03-03 03:53:00
10:53 PM,37.0,32.0,82,30.31,10.0,North,3.5,-,N/A,,Clear,350,2013-03-03 04:53:00
11:53 PM,36.0,30.0,79,30.31,10.0,Calm,Calm,-,N/A,,Clear,0,2013-03-03 05:53:00